Regional Weather Roundup
Issued by NWS Bismarck, ND

Home | Current Version | Previous Version | Text Only | Print | Product List | Glossary On
Versions: 1 2 3 4 5 6 7 8 9 10 11 12 13 14 15 16 17 18 19 20 21 22 23 24 25 26 27 28 29 30 31 32 33 34 35 36 37 38 39 40 41 42 43 44 45 46 47 48 49 50
000
ASUS43 KBIS 021820
RWRBIS

NWR BROADCAST TEXT
NATIONAL WEATHER SERVICE BISMARCK ND
1200 PM CST MON MAR 02 2015

NOTE: "FAIR" INDICATES FEW OR NO CLOUDS BELOW 12,000 FEET WITH NO
SIGNIFICANT WEATHER AND/OR OBSTRUCTIONS TO VISIBILITY.


CITY           SKY/WX    TMP DP  RH WIND       PRES   REMARKS
WILLISTON      SUNNY     31  14  49 S14G20    29.81F
MINOT          SUNNY     23  13  65 S24G35    29.89F WCI   7
MINOT AFB      SUNNY     23  16  75 S21       29.89F WCI   8
BISMARCK       SUNNY     31  15  52 S18       29.96F WCI  19
DICKINSON      SUNNY     32  15  49 S15       29.80F
GARRISON         N/A     27  15  61 S20G25    29.90F WCI  13
HETTINGER ARPT SUNNY     31  13  47 S13G20    29.86F
JAMESTOWN      SUNNY     23  14  68 S25G31    30.10F WCI   7
BEACH          FAIR      32  16  51 SW16      29.80F
CARRINGTON     FAIR      25  18  74 MISG      30.03F
CROSBY         FAIR      25  14  63 S18G26    29.78F WCI  11
HARVEY         FAIR      21  14  73 S22G28    29.98F WCI   5
HAZEN          FAIR      30  14  51 S21G30    29.88F WCI  17
LINTON         FAIR      28  19  69 S25G37    29.97F WCI  14
MANDAN         FAIR      30  16  55 S26G33    29.94F WCI  16
OAKES            N/A     25  16  68 S22       30.17F WCI  10
RUGBY          FAIR      21  14  73 S17G28    29.96F WCI   7
TIOGA          FAIR      25  16  68 S22       29.81F WCI  10
WATFORD CITY   FAIR      28  14  54 S20       29.78F WCI  15
$$

CITY           SKY/WX    TMP DP  RH WIND       PRES   REMARKS
GRAND FORKS    PTSUNNY   20  12  71 S15       30.20F WCI   6
GRAND FORKS AF SUNNY     28  12  51 S21G28    30.17F WCI  14
DEVILS LAKE    SUNNY     25  16  68 S22G29    30.04F WCI  10
FARGO          SUNNY     28  10  46 S21       30.24F WCI  15
CANDO          FAIR      23  16  74 S21G26    30.02F WCI   8
CAVALIER       FAIR      25  14  63 S15       30.13F WCI  12
GWINNER        CLEAR     30  18  59 S22G28    30.19F WCI  17
ROLLA          FAIR      19  16  86 S23G30    29.95F WCI   2
WALHALLA         N/A     25  12  58 S18G24    30.10F WCI  11
$$

CITY           SKY/WX    TMP DP  RH WIND       PRES   REMARKS
ABERDEEN       SUNNY     28  16  60 S26G33    30.17F WCI  13
MOBRIDGE       SUNNY     33  19  56 S24G32    29.97F
BUFFALO          N/A     33  15  47 SW12      29.76F
RAPID CITY     MOSUNNY   40  22  48 S21       29.84F
GLASGOW        SUNNY     31  12  45 W10       29.78S
SIDNEY         SUNNY     34  12  40 S21       29.82F
WOLF POINT     SUNNY     33  13  43 SW10      29.79F
GLENDIVE       SUNNY     34  14  44 S14G21    29.80F
MILES CITY     SUNNY     34  14  43 SW8       29.82F
BAKER          SUNNY     33  18  53 SW13      29.82F
$$

CITY           SKY/WX    TMP DP  RH WIND       PRES   REMARKS
BILLINGS       MOSUNNY   41  12  30 W16       29.82R
GREAT FALLS    CLOUDY    30  21  69 N15       29.89R WCI  19
REGINA         MOSUNNY   18  10  73 S13       29.72F WCI   4
ESTEVAN        PTSUNNY   23  12  63 S18G25    29.79F WCI   9
$$



USA.gov is the U.S. government's official web portal to all federal, state and local government web resources and services.